Cleveland Burke, OH

5:34 AM EDT on March 29, 2017 (GMT -0400)
Burke Lakefront

Weather History for KBKL - March, 2012

Change the Weather History Date:

Friday, March 2, 2012

  Actual Average Record
Temperature  
Mean Temperature 47 °F -  
Max Temperature 57 °F 38 °F 57 °F (2004)
Min Temperature 37 °F 26 °F 9 °F (2003)
Degree Days  
Heating Degree Days 18    
Moisture  
Dew Point 37 °F    
Average Humidity 68    
Maximum Humidity 83    
Minimum Humidity 49    
Precipitation  
Precipitation 0.00 in - - ()
Sea Level Pressure  
Sea Level Pressure 29.59 in    
Wind  
Wind Speed 9 mph (SSE)    
Max Wind Speed 31 mph    
Max Gust Speed 48 mph    
Visibility 10 miles    
Events Rain    
Averages and records for this station are not official NWS values.
T = Trace of Precipitation, MM = Missing Value Source: NWS Daily Summary

Daily Weather History Graph

Daily Weather History Graph

Search for Another Location

Airport or City:

Trip Planner

Search our weather history database for the weather conditions in past years. The results will help you decide how hot, cold, wet, or windy it might be!

Date:

Astronomy

Mar. 02, 2012 Rise Set
Actual Time 6:59 AM EST 6:19 PM EST
Civil Twilight 6:31 AM EST 6:46 PM EST
Nautical Twilight 5:59 AM EST 7:18 PM EST
Astronomical Twilight 5:27 AM EST 7:51 PM EST
Moon 12:26 PM EST (3/2) 2:51 AM EST (3/2)
Length of Visible Light 12h 15m
Length of Day
11h 20m
Waxing Gibbous, 66% of the Moon is Illuminated
Mar 2
Waxing Gibbous
Mar 8
Full
Mar 14
Last Quarter
Mar 22
New
Mar 30
First Quarter

Hourly Weather History & Observations

Time (EST) Temp. Windchill Dew Point Humidity Pressure Visibility Wind Dir Wind Speed Gust Speed Precip Events Conditions
12:26 AM 39.2 °F - 28.4 °F 65% 29.90 in 10.0 mi Calm Calm - N/A   Scattered Clouds
12:53 AM 39.9 °F - 28.0 °F 63% 29.91 in 10.0 mi Calm Calm - N/A   Clear
1:53 AM 37.9 °F 35.5 °F 28.9 °F 70% 29.91 in 10.0 mi SE 3.5 mph - N/A   Clear
2:53 AM 37.9 °F 35.5 °F 28.9 °F 70% 29.90 in 10.0 mi SSE 3.5 mph - N/A   Clear
3:53 AM 37.0 °F 33.3 °F 28.9 °F 73% 29.88 in 10.0 mi SSE 4.6 mph - N/A   Clear
4:53 AM 37.9 °F 31.5 °F 28.9 °F 70% 29.85 in 10.0 mi SE 9.2 mph - N/A   Clear
5:53 AM 37.9 °F 30.5 °F 28.9 °F 70% 29.83 in 10.0 mi SE 11.5 mph 18.4 mph N/A   Clear
6:53 AM 39.0 °F 31.8 °F 28.9 °F 67% 29.82 in 10.0 mi SSE 11.5 mph 19.6 mph N/A   Clear
7:53 AM 39.9 °F 32.1 °F 28.9 °F 65% 29.81 in 10.0 mi SSE 13.8 mph - N/A   Clear
8:53 AM 42.1 °F 34.5 °F 30.0 °F 62% 29.78 in 10.0 mi SSE 15.0 mph 21.9 mph N/A   Clear
9:53 AM 45.0 °F 40.1 °F 30.9 °F 58% 29.74 in 10.0 mi SSE 9.2 mph - N/A   Clear
10:53 AM 46.9 °F - 32.0 °F 56% 29.70 in 10.0 mi ESE 10.4 mph - N/A   Clear
11:53 AM 50.0 °F - 33.1 °F 52% 29.67 in 10.0 mi SE 5.8 mph - N/A   Partly Cloudy
12:53 PM 51.1 °F - 33.1 °F 50% 29.60 in 10.0 mi SE 15.0 mph 20.7 mph N/A   Scattered Clouds
1:53 PM 52.0 °F - 34.0 °F 50% 29.55 in 10.0 mi SE 11.5 mph - N/A   Overcast
2:53 PM 54.0 °F - 35.1 °F 49% 29.49 in 10.0 mi SE 12.7 mph - N/A   Overcast
3:53 PM 53.1 °F - 39.0 °F 59% 29.47 in 10.0 mi SE 9.2 mph 23.0 mph 0.00 in   Overcast
4:53 PM 51.1 °F - 43.0 °F 74% 29.42 in 9.0 mi SE 11.5 mph 20.7 mph N/A Rain Light Rain
5:53 PM 51.1 °F - 44.1 °F 77% 29.39 in 7.0 mi SSE 13.8 mph 25.3 mph N/A Rain Rain
6:53 PM 52.0 °F - 46.9 °F 83% 29.29 in 10.0 mi South 16.1 mph 28.8 mph N/A   Mostly Cloudy
7:39 PM 53.6 °F - 48.2 °F 82% 29.28 in 10.0 mi SSE 21.9 mph 29.9 mph N/A   Mostly Cloudy
7:53 PM 54.0 °F - 48.0 °F 80% 29.29 in 10.0 mi SSE 20.7 mph 31.1 mph N/A   Mostly Cloudy
8:43 PM 53.6 °F - 48.2 °F 82% 29.27 in 10.0 mi SSE 20.7 mph 29.9 mph N/A   Scattered Clouds
8:53 PM 54.0 °F - 48.9 °F 83% 29.28 in 10.0 mi SSE 17.3 mph 26.5 mph N/A   Partly Cloudy
9:53 PM 55.0 °F - 48.9 °F 80% 29.26 in 10.0 mi South 16.1 mph 24.2 mph N/A   Partly Cloudy
10:53 PM 57.0 °F - 48.0 °F 72% 29.28 in 10.0 mi SW 21.9 mph 39.1 mph N/A   Mostly Cloudy
11:53 PM 48.0 °F - 36.0 °F 63% 29.36 in 10.0 mi SW 31.1 mph 48.3 mph N/A   Overcast